Location: Maignaut
(43.8886°N, 0.4051°E)
Time: 01:35:15
(UTC+00:00)

Okean 1-7 - Pass Details

Date: 27 February 2020
Orbit: 592 x 617 km, 82.5° (Epoch: 05 April)

Event Time Altitude Azimuth Distance (km) Brightness Sun altitude
Rises 18:42:03 0° 355° (N) 2,865 6.5 -11.3°
Reaches altitude 10° 18:44:18 10° 359° (N) 1,961 5.6 -11.7°
Maximum altitude 18:48:34 58° 79° (E) 712 3.0 -12.5°
Drops below altitude 10° 18:52:51 10° 159° (SSE) 1,961 5.4 -13.3°
Sets 18:55:06 0° 163° (SSE) 2,864 6.3 -13.7°
